| time (UTC) | temp F | wind direction | speed MPH | gust MPH | rain 1hr in | rain 24hr in | rain mn in | humidity % | barometer mb |
| 20260508085936 | 67 | 40 | 1.0 | 4.0 | 0.00 | 0.33 | 0.00 | 75 | 1014.3 |
| 20260508085433 | 68 | 40 | 1.0 | 4.0 | 0.00 | 0.33 | 0.00 | 74 | 1014.3 |
| 20260508084435 | 68 | 40 | 2.0 | 5.0 | 0.00 | 0.33 | 0.00 | 74 | 1014.1 |
| 20260508083933 | 68 | 346 | 2.0 | 4.0 | 0.00 | 0.33 | 0.00 | 75 | 1014.0 |
| 20260508082930 | 68 | 346 | 2.0 | 5.0 | 0.00 | 0.33 | 0.00 | 75 | 1014.1 |
| 20260508082430 | 68 | 346 | 3.0 | 5.0 | 0.00 | 0.33 | 0.00 | 76 | 1014.1 |
| 20260508081930 | 68 | 336 | 3.0 | 8.0 | 0.00 | 0.33 | 0.00 | 76 | 1014.2 |
| 20260508081427 | 68 | 351 | 3.0 | 8.0 | 0.00 | 0.33 | 0.00 | 77 | 1014.1 |
| 20260508080927 | 68 | 30 | 3.0 | 6.0 | 0.00 | 0.33 | 0.00 | 78 | 1013.7 |
| 20260508080429 | 68 | 13 | 3.0 | 6.0 | 0.00 | 0.33 | 0.00 | 78 | 1014.0 |
| 20260508075927 | 68 | 1 | 3.0 | 7.0 | 0.00 | 0.33 | 0.00 | 79 | 1013.9 |
| 20260508074926 | 68 | 25 | 2.0 | 4.0 | 0.00 | 0.33 | 0.00 | 81 | 1014.1 |
| 20260508074430 | 68 | 25 | 3.0 | 8.0 | 0.00 | 0.33 | 0.00 | 81 | 1013.9 |
| 20260508073928 | 69 | 18 | 3.0 | 8.0 | 0.00 | 0.33 | 0.00 | 81 | 1014.1 |
| 20260508073424 | 69 | 20 | 3.0 | 8.0 | 0.00 | 0.33 | 0.00 | 81 | 1014.2 |
| 20260508072421 | 69 | 0 | 2.0 | 5.0 | 0.00 | 0.33 | 0.00 | 81 | 1014.0 |
| 20260508071925 | 69 | 8 | 3.0 | 5.0 | 0.00 | 0.33 | 0.00 | 81 | 1013.9 |
| 20260508070422 | 70 | 341 | 3.0 | 8.0 | 0.00 | 0.33 | 0.00 | 80 | 1014.2 |
| 20260508065921 | 70 | 318 | 4.0 | 10.0 | 0.00 | 0.33 | 0.00 | 80 | 1014.2 |
| 20260508065419 | 70 | 356 | 5.0 | 11.0 | 0.00 | 0.33 | 0.00 | 80 | 1014.0 |
| 20260508064420 | 71 | 336 | 5.0 | 12.0 | 0.00 | 0.33 | 0.00 | 80 | 1014.1 |
| 20260508063919 | 71 | 326 | 6.0 | 12.0 | 0.00 | 0.33 | 0.00 | 81 | 1014.1 |
| 20260508063419 | 71 | 4 | 7.0 | 13.0 | 0.00 | 0.33 | 0.00 | 82 | 1014.1 |
| 20260508062417 | 72 | 4 | 9.0 | 14.0 | 0.00 | 0.33 | 0.00 | 84 | 1014.1 |
| 20260508061917 | 72 | 11 | 8.0 | 14.0 | 0.00 | 0.33 | 0.00 | 87 | 1014.1 |
| 20260508061419 | 72 | 356 | 6.0 | 14.0 | 0.00 | 0.33 | 0.00 | 89 | 1014.1 |
| 20260508060917 | 73 | 0 | 5.0 | 13.0 | 0.00 | 0.33 | 0.00 | 90 | 1014.1 |
| 20260508060418 | 73 | 9 | 5.0 | 9.0 | 0.00 | 0.33 | 0.00 | 90 | 1014.1 |
| 20260508055918 | 73 | 330 | 6.0 | 12.0 | 0.00 | 0.33 | 0.00 | 91 | 1014.1 |
| 20260508055419 | 73 | 320 | 5.0 | 12.0 | 0.00 | 0.33 | 0.00 | 91 | 1014.2 |
| 20260508054921 | 73 | 306 | 3.0 | 8.0 | 0.00 | 0.33 | 0.00 | 91 | 1014.0 |
| 20260508053919 | 73 | 296 | 3.0 | 9.0 | 0.00 | 0.33 | 0.00 | 92 | 1014.1 |
| 20260508053419 | 73 | 265 | 3.0 | 8.0 | 0.00 | 0.33 | 0.00 | 92 | 1014.2 |
| 20260508052931 | 73 | 256 | 2.0 | 4.0 | 0.00 | 0.33 | 0.00 | 92 | 1014.1 |
| 20260508052418 | 73 | 256 | 2.0 | 4.0 | 0.00 | 0.33 | 0.00 | 92 | 1013.9 |
| 20260508051917 | 73 | 256 | 2.0 | 4.0 | 0.00 | 0.33 | 0.00 | 92 | 1013.8 |
| 20260508051418 | 73 | 248 | 2.0 | 4.0 | 0.00 | 0.33 | 0.00 | 92 | 1013.8 |
| 20260508050918 | 73 | 247 | 1.0 | 3.0 | 0.00 | 0.33 | 0.00 | 92 | 1013.7 |
| 20260508050418 | 73 | 247 | 1.0 | 3.0 | 0.00 | 0.33 | 0.00 | 91 | 1013.7 |
| 20260508045416 | 73 | 247 | 1.0 | 4.0 | 0.00 | 0.33 | 0.00 | 91 | 1013.5 |
| 20260508044917 | 73 | 247 | 2.0 | 4.0 | 0.00 | 0.33 | 0.00 | 91 | 1013.6 |
| 20260508043416 | 73 | 241 | 1.0 | 3.0 | 0.00 | 0.33 | 0.00 | 90 | 1013.6 |
| 20260508042914 | 73 | 240 | 1.0 | 3.0 | 0.00 | 0.33 | 0.00 | 90 | 1013.4 |
| 20260508041910 | 74 | 240 | 2.0 | 5.0 | 0.00 | 0.33 | 0.00 | 90 | 1013.6 |
| 20260508041410 | 74 | 241 | 2.0 | 3.0 | 0.00 | 0.33 | 0.00 | 90 | 1013.6 |
| 20260508040908 | 74 | 241 | 2.0 | 3.0 | 0.00 | 0.33 | 0.00 | 90 | 1013.7 |
| 20260508040410 | 74 | 241 | 2.0 | 3.0 | 0.00 | 0.33 | 0.00 | 89 | 1013.6 |
| 20260508035911 | 74 | 241 | 2.0 | 3.0 | 0.00 | 0.33 | 0.33 | 89 | 1013.5 |
| 20260508034909 | 74 | 241 | 1.0 | 4.0 | 0.00 | 0.33 | 0.33 | 89 | 1013.3 |
| 20260508034412 | 74 | 241 | 2.0 | 4.0 | 0.00 | 0.33 | 0.33 | 89 | 1013.3 |
| 20260508032910 | 74 | 241 | 2.0 | 5.0 | 0.00 | 0.33 | 0.33 | 89 | 1013.7 |
| 20260508032414 | 74 | 241 | 2.0 | 5.0 | 0.00 | 0.33 | 0.33 | 89 | 1013.7 |
| 20260508031910 | 74 | 253 | 2.0 | 3.0 | 0.00 | 0.33 | 0.33 | 89 | 1013.7 |
| 20260508031407 | 74 | 254 | 1.0 | 3.0 | 0.00 | 0.33 | 0.33 | 88 | 1013.6 |
| 20260508030905 | 74 | 254 | 2.0 | 7.0 | 0.00 | 0.33 | 0.33 | 88 | 1013.6 |
| 20260508030403 | 74 | 254 | 2.0 | 7.0 | 0.00 | 0.33 | 0.33 | 88 | 1013.6 |
| 20260508024904 | 74 | 220 | 2.0 | 4.0 | 0.00 | 0.33 | 0.33 | 88 | 1013.6 |
| 20260508024358 | 74 | 219 | 2.0 | 5.0 | 0.00 | 0.33 | 0.33 | 88 | 1013.5 |
| 20260508023855 | 74 | 217 | 2.0 | 5.0 | 0.00 | 0.33 | 0.33 | 88 | 1013.4 |
| 20260508023355 | 74 | 218 | 2.0 | 4.0 | 0.00 | 0.33 | 0.33 | 88 | 1013.3 |
| 20260508022857 | 74 | 218 | 2.0 | 4.0 | 0.00 | 0.33 | 0.33 | 88 | 1013.2 |
| 20260508022356 | 74 | 219 | 2.0 | 4.0 | 0.00 | 0.33 | 0.33 | 87 | 1013.1 |
| 20260508021857 | 74 | 219 | 2.0 | 4.0 | 0.00 | 0.33 | 0.33 | 87 | 1013.0 |
| 20260508015857 | 75 | 227 | 2.0 | 7.0 | 0.00 | 0.33 | 0.33 | 87 | 1012.7 |
| 20260508015355 | 75 | 225 | 2.0 | 5.0 | 0.00 | 0.33 | 0.33 | 86 | 1012.7 |
| 20260508014856 | 75 | 225 | 2.0 | 5.0 | 0.00 | 0.33 | 0.33 | 86 | 1012.7 |
| 20260508013855 | 75 | 230 | 2.0 | 5.0 | 0.00 | 0.33 | 0.33 | 86 | 1012.6 |
| 20260508012349 | 75 | 242 | 1.0 | 2.0 | 0.00 | 0.33 | 0.33 | 86 | 1012.5 |
| 20260508011850 | 76 | 242 | 1.0 | 2.0 | 0.00 | 0.33 | 0.33 | 86 | 1012.5 |
| 20260508011349 | 76 | 242 | 1.0 | 2.0 | 0.00 | 0.33 | 0.33 | 85 | 1012.4 |
| 20260508010850 | 76 | 242 | 1.0 | 2.0 | 0.00 | 0.33 | 0.33 | 85 | 1012.2 |
| 20260508010350 | 76 | 242 | 1.0 | 3.0 | 0.00 | 0.33 | 0.33 | 84 | 1012.3 |
| 20260508005845 | 76 | 242 | 1.0 | 3.0 | 0.00 | 0.33 | 0.33 | 84 | 1012.2 |
| 20260508005346 | 76 | 242 | 1.0 | 3.0 | 0.00 | 0.33 | 0.33 | 84 | 1012.1 |
| 20260508004845 | 76 | 242 | 2.0 | 3.0 | 0.00 | 0.33 | 0.33 | 83 | 1012.2 |
| 20260508004346 | 77 | 242 | 1.0 | 3.0 | 0.00 | 0.33 | 0.33 | 83 | 1012.1 |
| 20260508003346 | 77 | 242 | 1.0 | 3.0 | 0.00 | 0.33 | 0.33 | 82 | 1012.0 |
| 20260508002845 | 77 | 242 | 2.0 | 4.0 | 0.00 | 0.33 | 0.33 | 82 | 1012.0 |
| 20260508002347 | 77 | 252 | 2.0 | 6.0 | 0.00 | 0.33 | 0.33 | 81 | 1012.0 |
| 20260508001845 | 78 | 253 | 3.0 | 8.0 | 0.00 | 0.33 | 0.33 | 81 | 1012.0 |
| 20260508001344 | 78 | 232 | 4.0 | 8.0 | 0.00 | 0.33 | 0.33 | 81 | 1012.0 |
| 20260508000845 | 78 | 248 | 4.0 | 8.0 | 0.00 | 0.33 | 0.33 | 80 | 1012.0 |
| 20260508000345 | 78 | 252 | 4.0 | 8.0 | 0.00 | 0.33 | 0.33 | 80 | 1012.0 |
| 20260507235847 | 78 | 235 | 4.0 | 10.0 | 0.00 | 0.33 | 0.33 | 79 | 1012.0 |
| 20260507235348 | 78 | 232 | 5.0 | 11.0 | 0.00 | 0.33 | 0.33 | 79 | 1012.0 |
| 20260507234848 | 79 | 230 | 6.0 | 16.0 | 0.00 | 0.33 | 0.33 | 78 | 1012.1 |
| 20260507232843 | 79 | 256 | 7.0 | 18.0 | 0.00 | 0.33 | 0.33 | 77 | 1011.9 |
| 20260507232343 | 79 | 239 | 7.0 | 18.0 | 0.00 | 0.33 | 0.33 | 77 | 1012.1 |
| 20260507231840 | 79 | 227 | 7.0 | 17.0 | 0.00 | 0.33 | 0.33 | 77 | 1012.0 |
| 20260507230846 | 80 | 223 | 7.0 | 14.0 | 0.00 | 0.33 | 0.33 | 77 | 1012.0 |
| 20260507230339 | 80 | 255 | 7.0 | 14.0 | 0.00 | 0.33 | 0.33 | 77 | 1012.0 |
| 20260507225839 | 80 | 244 | 8.0 | 18.0 | 0.00 | 0.33 | 0.33 | 76 | 1011.8 |
| 20260507225346 | 80 | 233 | 8.0 | 18.0 | 0.00 | 0.33 | 0.33 | 76 | 1011.7 |
| 20260507224845 | 80 | 259 | 7.0 | 15.0 | 0.00 | 0.33 | 0.33 | 76 | 1011.7 |
| 20260507224341 | 80 | 239 | 7.0 | 15.0 | 0.00 | 0.33 | 0.33 | 76 | 1011.8 |
| 20260507223837 | 80 | 206 | 7.0 | 15.0 | 0.00 | 0.33 | 0.33 | 76 | 1011.7 |
| 20260507223335 | 80 | 264 | 6.0 | 15.0 | 0.00 | 0.33 | 0.33 | 76 | 1011.7 |
| 20260507222837 | 80 | 222 | 6.0 | 15.0 | 0.00 | 0.33 | 0.33 | 76 | 1011.6 |
| 20260507222336 | 80 | 229 | 6.0 | 18.0 | 0.00 | 0.33 | 0.33 | 76 | 1011.6 |
| 20260507221833 | 80 | 214 | 7.0 | 18.0 | 0.00 | 0.33 | 0.33 | 76 | 1011.8 |
| 20260507220829 | 80 | 270 | 7.0 | 15.0 | 0.00 | 0.33 | 0.33 | 75 | 1011.8 |
| 20260507220333 | 80 | 242 | 8.0 | 18.0 | 0.00 | 0.33 | 0.33 | 76 | 1011.8 |
| 20260507215833 | 80 | 200 | 9.0 | 20.0 | 0.00 | 0.33 | 0.33 | 75 | 1011.7 |
| 20260507215333 | 80 | 227 | 8.0 | 20.0 | 0.00 | 0.33 | 0.33 | 75 | 1011.8 |
| 20260507214835 | 80 | 223 | 6.0 | 17.0 | 0.00 | 0.33 | 0.33 | 75 | 1011.8 |
| 20260507214331 | 80 | 281 | 8.0 | 17.0 | 0.00 | 0.33 | 0.33 | 75 | 1011.7 |
| 20260507213833 | 80 | 238 | 8.0 | 17.0 | 0.00 | 0.33 | 0.33 | 74 | 1011.7 |
| 20260507213329 | 80 | 223 | 7.0 | 17.0 | 0.00 | 0.33 | 0.33 | 74 | 1011.6 |
| 20260507212832 | 80 | 249 | 8.0 | 18.0 | 0.00 | 0.33 | 0.33 | 74 | 1011.5 |
| 20260507212333 | 80 | 228 | 8.0 | 18.0 | 0.00 | 0.33 | 0.33 | 74 | 1011.6 |
| 20260507211902 | 80 | 208 | 8.0 | 14.0 | 0.00 | 0.33 | 0.33 | 74 | 1011.6 |
| 20260507211340 | 80 | 279 | 9.0 | 20.0 | 0.00 | 0.33 | 0.33 | 74 | 1011.6 |
| 20260507210829 | 80 | 237 | 9.0 | 20.0 | 0.00 | 0.33 | 0.33 | 73 | 1011.5 |
| 20260507210349 | 80 | 204 | 8.0 | 19.0 | 0.00 | 0.33 | 0.33 | 73 | 1011.4 |
| 20260507205838 | 80 | 200 | 9.0 | 20.0 | 0.00 | 0.33 | 0.33 | 74 | 1011.5 |
| 20260507205342 | 79 | 239 | 10.0 | 20.0 | 0.00 | 0.33 | 0.33 | 73 | 1011.5 |
| 20260507204329 | 80 | 232 | 11.0 | 23.0 | 0.00 | 0.33 | 0.33 | 72 | 1011.6 |
| 20260507202837 | 81 | 247 | 9.0 | 16.0 | 0.00 | 0.33 | 0.33 | 72 | 1011.6 |
| 20260507202324 | 80 | 279 | 8.0 | 19.0 | 0.00 | 0.33 | 0.33 | 74 | 1011.6 |
| 20260507201819 | 80 | 248 | 8.0 | 19.0 | 0.00 | 0.33 | 0.33 | 74 | 1011.7 |
| 20260507201332 | 81 | 249 | 8.0 | 18.0 | 0.00 | 0.33 | 0.33 | 74 | 1011.6 |
| 20260507200304 | 79 | 221 | 8.0 | 19.0 | 0.00 | 0.33 | 0.33 | 77 | 1011.8 |
| 20260507195817 | 79 | 209 | 8.0 | 19.0 | 0.00 | 0.33 | 0.33 | 78 | 1012.0 |
| 20260507195305 | 79 | 250 | 9.0 | 22.0 | 0.00 | 0.33 | 0.33 | 78 | 1012.1 |
| 20260507194804 | 79 | 194 | 10.0 | 22.0 | 0.00 | 0.33 | 0.33 | 77 | 1012.1 |
| 20260507194308 | 79 | 200 | 10.0 | 21.0 | 0.00 | 0.33 | 0.33 | 77 | 1012.0 |
| 20260507193808 | 79 | 272 | 10.0 | 21.0 | 0.00 | 0.33 | 0.33 | 78 | 1011.9 |
| 20260507193311 | 78 | 221 | 9.0 | 21.0 | 0.00 | 0.33 | 0.33 | 77 | 1011.8 |
| 20260507192812 | 78 | 250 | 8.0 | 20.0 | 0.00 | 0.33 | 0.33 | 80 | 1011.8 |
| 20260507192307 | 77 | 233 | 9.0 | 20.0 | 0.00 | 0.33 | 0.33 | 81 | 1011.8 |
| 20260507191807 | 77 | 252 | 9.0 | 17.0 | 0.00 | 0.33 | 0.33 | 80 | 1011.9 |
| 20260507191305 | 77 | 256 | 8.0 | 17.0 | 0.00 | 0.33 | 0.33 | 81 | 1012.1 |
| 20260507190802 | 77 | 264 | 8.0 | 17.0 | 0.00 | 0.33 | 0.33 | 81 | 1012.2 |
| 20260507190303 | 77 | 231 | 8.0 | 16.0 | 0.00 | 0.33 | 0.33 | 81 | 1012.2 |
| 20260507185800 | 76 | 250 | 7.0 | 13.0 | 0.00 | 0.33 | 0.33 | 81 | 1012.2 |
| 20260507185300 | 76 | 196 | 7.0 | 13.0 | 0.00 | 0.33 | 0.33 | 82 | 1012.3 |
| 20260507184758 | 76 | 236 | 8.0 | 16.0 | 0.00 | 0.33 | 0.33 | 82 | 1012.2 |
| 20260507184258 | 76 | 212 | 9.0 | 19.0 | 0.00 | 0.33 | 0.33 | 82 | 1012.4 |
| 20260507183800 | 76 | 225 | 10.0 | 21.0 | 0.00 | 0.33 | 0.33 | 82 | 1012.4 |
| 20260507183259 | 76 | 234 | 9.0 | 21.0 | 0.00 | 0.33 | 0.33 | 83 | 1012.5 |
| 20260507182258 | 76 | 206 | 7.0 | 15.0 | 0.00 | 0.33 | 0.33 | 82 | 1012.4 |
| 20260507181758 | 76 | 214 | 8.0 | 18.0 | 0.00 | 0.33 | 0.33 | 83 | 1012.6 |
| 20260507181258 | 76 | 213 | 8.0 | 18.0 | 0.00 | 0.33 | 0.33 | 82 | 1012.6 |
| 20260507180258 | 76 | 242 | 7.0 | 15.0 | 0.00 | 0.33 | 0.33 | 83 | 1012.5 |
| 20260507175801 | 76 | 224 | 6.0 | 18.0 | 0.00 | 0.33 | 0.33 | 83 | 1012.6 |
| 20260507175259 | 76 | 223 | 7.0 | 18.0 | 0.00 | 0.33 | 0.33 | 83 | 1012.5 |
| 20260507174754 | 76 | 196 | 8.0 | 17.0 | 0.00 | 0.33 | 0.33 | 84 | 1012.6 |
| 20260507173752 | 76 | 173 | 7.0 | 14.0 | 0.00 | 0.33 | 0.33 | 83 | 1012.6 |
| 20260507173302 | 76 | 183 | 9.0 | 18.0 | 0.00 | 0.33 | 0.33 | 83 | 1012.6 |
| 20260507172253 | 76 | 214 | 8.0 | 17.0 | 0.00 | 0.33 | 0.33 | 82 | 1012.8 |
| 20260507171752 | 76 | 201 | 8.0 | 19.0 | 0.00 | 0.33 | 0.33 | 82 | 1013.0 |
| 20260507171254 | 76 | 231 | 8.0 | 19.0 | 0.00 | 0.33 | 0.33 | 82 | 1013.2 |
| 20260507170748 | 76 | 241 | 7.0 | 18.0 | 0.00 | 0.33 | 0.33 | 83 | 1013.4 |
| 20260507170249 | 75 | 219 | 8.0 | 18.0 | 0.00 | 0.33 | 0.33 | 83 | 1013.0 |
| 20260507165748 | 75 | 198 | 8.0 | 18.0 | 0.00 | 0.33 | 0.33 | 83 | 1012.9 |
| 20260507165248 | 75 | 205 | 7.0 | 14.0 | 0.00 | 0.33 | 0.33 | 84 | 1012.8 |
| 20260507164750 | 75 | 228 | 6.0 | 12.0 | 0.00 | 0.33 | 0.33 | 83 | 1012.9 |
| 20260507163747 | 75 | 189 | 6.0 | 13.0 | 0.00 | 0.33 | 0.33 | 84 | 1012.7 |
| 20260507163242 | 75 | 207 | 7.0 | 14.0 | 0.00 | 0.33 | 0.33 | 84 | 1012.7 |
| 20260507162742 | 74 | 204 | 7.0 | 14.0 | 0.00 | 0.33 | 0.33 | 83 | 1012.8 |
| 20260507162243 | 74 | 215 | 7.0 | 13.0 | 0.00 | 0.33 | 0.33 | 83 | 1012.8 |
| 20260507161239 | 74 | 185 | 6.0 | 14.0 | 0.01 | 0.33 | 0.33 | 84 | 1012.7 |
| 20260507160740 | 74 | 218 | 6.0 | 15.0 | 0.01 | 0.33 | 0.33 | 85 | 1012.7 |
| 20260507160238 | 73 | 185 | 6.0 | 15.0 | 0.01 | 0.33 | 0.33 | 85 | 1012.7 |
| 20260507155742 | 73 | 225 | 7.0 | 14.0 | 0.02 | 0.33 | 0.33 | 85 | 1012.6 |
| 20260507155246 | 73 | 206 | 8.0 | 15.0 | 0.02 | 0.33 | 0.33 | 87 | 1012.6 |
| 20260507154756 | 72 | 222 | 9.0 | 17.0 | 0.03 | 0.33 | 0.33 | 88 | 1012.6 |
| 20260507154239 | 71 | 212 | 9.0 | 19.0 | 0.04 | 0.33 | 0.33 | 89 | 1012.7 |
| 20260507153742 | 71 | 166 | 8.0 | 19.0 | 0.05 | 0.33 | 0.33 | 90 | 1013.0 |
| 20260507153241 | 70 | 202 | 7.0 | 14.0 | 0.06 | 0.33 | 0.33 | 90 | 1013.1 |
| 20260507152738 | 70 | 214 | 7.0 | 18.0 | 0.08 | 0.33 | 0.33 | 90 | 1012.8 |
| 20260507152237 | 70 | 216 | 8.0 | 18.0 | 0.11 | 0.33 | 0.33 | 91 | 1013.0 |
| 20260507151234 | 70 | 200 | 11.0 | 20.0 | 0.13 | 0.32 | 0.32 | 91 | 1013.2 |
| 20260507150734 | 70 | 204 | 11.0 | 24.0 | 0.14 | 0.32 | 0.32 | 91 | 1013.4 |
| 20260507150234 | 70 | 212 | 10.0 | 24.0 | 0.16 | 0.32 | 0.32 | 91 | 1013.9 |
| 20260507145731 | 70 | 205 | 9.0 | 22.0 | 0.15 | 0.31 | 0.31 | 91 | 1014.1 |
| 20260507145230 | 70 | 220 | 9.0 | 22.0 | 0.15 | 0.31 | 0.31 | 91 | 1014.6 |
| 20260507144731 | 70 | 200 | 10.0 | 25.0 | 0.14 | 0.30 | 0.30 | 91 | 1014.9 |
| 20260507144232 | 70 | 202 | 10.0 | 25.0 | 0.13 | 0.29 | 0.29 | 91 | 1014.9 |
| 20260507143232 | 69 | 233 | 6.0 | 12.0 | 0.12 | 0.27 | 0.27 | 91 | 1015.6 |
| 20260507142230 | 69 | 216 | 8.0 | 15.0 | 0.07 | 0.22 | 0.22 | 90 | 1016.1 |
| 20260507141731 | 69 | 245 | 8.0 | 17.0 | 0.06 | 0.21 | 0.20 | 89 | 1016.2 |
| 20260507140731 | 69 | 245 | 6.0 | 13.0 | 0.04 | 0.18 | 0.18 | 88 | 1016.0 |
| 20260507140228 | 69 | 264 | 6.0 | 13.0 | 0.04 | 0.16 | 0.16 | 88 | 1015.8 |
| 20260507135228 | 69 | 251 | 6.0 | 15.0 | 0.05 | 0.16 | 0.16 | 87 | 1014.7 |
| 20260507134726 | 69 | 232 | 7.0 | 16.0 | 0.07 | 0.16 | 0.16 | 87 | 1013.9 |
| 20260507134225 | 69 | 197 | 8.0 | 16.0 | 0.08 | 0.16 | 0.16 | 89 | 1013.2 |
| 20260507133726 | 68 | 225 | 8.0 | 18.0 | 0.08 | 0.15 | 0.15 | 90 | 1012.2 |
| 20260507133227 | 68 | 173 | 7.0 | 18.0 | 0.10 | 0.15 | 0.15 | 91 | 1011.0 |
| 20260507132725 | 68 | 203 | 7.0 | 19.0 | 0.11 | 0.15 | 0.15 | 91 | 1010.9 |
| 20260507132232 | 68 | 194 | 8.0 | 19.0 | 0.12 | 0.15 | 0.15 | 91 | 1010.8 |
| 20260507131719 | 67 | 163 | 8.0 | 19.0 | 0.13 | 0.15 | 0.15 | 91 | 1010.9 |
| 20260507130724 | 67 | 152 | 5.0 | 19.0 | 0.14 | 0.14 | 0.13 | 91 | 1011.3 |
| 20260507130222 | 67 | 158 | 4.0 | 16.0 | 0.12 | 0.12 | 0.12 | 91 | 1012.1 |
| 20260507125719 | 67 | 143 | 3.0 | 11.0 | 0.11 | 0.11 | 0.11 | 91 | 1012.8 |
| 20260507125221 | 68 | 160 | 3.0 | 11.0 | 0.11 | 0.11 | 0.10 | 90 | 1013.2 |
| 20260507124717 | 68 | 159 | 2.0 | 6.0 | 0.09 | 0.09 | 0.09 | 89 | 1013.5 |
| 20260507124216 | 68 | 222 | 1.0 | 4.0 | 0.08 | 0.08 | 0.08 | 89 | 1015.0 |
| 20260507123716 | 69 | 223 | 1.0 | 4.0 | 0.07 | 0.07 | 0.07 | 88 | 1015.3 |
| 20260507123217 | 69 | 264 | 1.0 | 4.0 | 0.05 | 0.05 | 0.05 | 87 | 1016.0 |
| 20260507122714 | 69 | 262 | 1.0 | 4.0 | 0.04 | 0.04 | 0.03 | 86 | 1015.9 |
| 20260507122212 | 69 | 262 | 2.0 | 7.0 | 0.03 | 0.03 | 0.03 | 85 | 1015.6 |
| 20260507120703 | 70 | 223 | 3.0 | 9.0 | 0.00 | 0.00 | 0.00 | 82 | 1015.5 |
| 20260507120205 | 70 | 252 | 3.0 | 6.0 | 0.00 | 0.00 | 0.00 | 81 | 1015.3 |
| 20260507115705 | 71 | 191 | 4.0 | 8.0 | 0.00 | 0.00 | 0.00 | 81 | 1014.5 |
| 20260507115211 | 70 | 198 | 4.0 | 8.0 | 0.00 | 0.00 | 0.00 | 81 | 1014.0 |
| 20260507114705 | 70 | 194 | 3.0 | 7.0 | 0.00 | 0.00 | 0.00 | 82 | 1013.1 |
| 20260507114201 | 70 | 183 | 3.0 | 7.0 | 0.00 | 0.00 | 0.00 | 83 | 1012.5 |
| 20260507113703 | 70 | 181 | 3.0 | 6.0 | 0.00 | 0.00 | 0.00 | 83 | 1011.8 |
| 20260507113201 | 70 | 153 | 3.0 | 5.0 | 0.00 | 0.00 | 0.00 | 83 | 1011.4 |
| 20260507112702 | 70 | 158 | 2.0 | 6.0 | 0.00 | 0.00 | 0.00 | 83 | 1012.0 |
| 20260507112205 | 70 | 95 | 2.0 | 6.0 | 0.00 | 0.00 | 0.00 | 83 | 1012.1 |
| 20260507111704 | 70 | 62 | 2.0 | 3.0 | 0.00 | 0.00 | 0.00 | 83 | 1012.0 |
| 20260507111203 | 70 | 304 | 1.0 | 3.0 | 0.00 | 0.00 | 0.00 | 83 | 1013.1 |
| 20260507110657 | 71 | 305 | 0.0 | 2.0 | 0.00 | 0.00 | 0.00 | 82 | 1013.6 |
| 20260507105700 | 71 | 305 | 1.0 | 3.0 | 0.00 | 0.00 | 0.00 | 81 | 1013.5 |
| 20260507105157 | 71 | 305 | 1.0 | 3.0 | 0.00 | 0.00 | 0.00 | 81 | 1014.1 |
| 20260507104656 | 71 | 305 | 1.0 | 3.0 | 0.00 | 0.00 | 0.00 | 80 | 1014.4 |
| 20260507103649 | 71 | 305 | 0.0 | 2.0 | 0.00 | 0.00 | 0.00 | 80 | 1013.8 |
| 20260507103148 | 71 | 305 | 0.0 | 2.0 | 0.00 | 0.00 | 0.00 | 79 | 1014.4 |
| 20260507102646 | 72 | 305 | 0.0 | 2.0 | 0.00 | 0.00 | 0.00 | 78 | 1014.2 |
| 20260507102145 | 72 | 305 | 0.0 | 2.0 | 0.00 | 0.00 | 0.00 | 78 | 1014.6 |
| 20260507100643 | 72 | 305 | 0.0 | 2.0 | 0.00 | 0.00 | 0.00 | 76 | 1015.0 |
| 20260507100141 | 73 | 305 | 1.0 | 3.0 | 0.00 | 0.00 | 0.00 | 75 | 1014.9 |
| 20260507095639 | 73 | 305 | 1.0 | 3.0 | 0.00 | 0.00 | 0.00 | 75 | 1014.9 |
| 20260507095138 | 73 | 305 | 2.0 | 3.0 | 0.00 | 0.00 | 0.00 | 74 | 1015.1 |
| 20260507094636 | 73 | 305 | 2.0 | 4.0 | 0.00 | 0.00 | 0.00 | 74 | 1015.1 |
| 20260507094133 | 73 | 304 | 2.0 | 4.0 | 0.00 | 0.00 | 0.00 | 74 | 1015.1 |
| 20260507093637 | 73 | 299 | 1.0 | 4.0 | 0.00 | 0.00 | 0.00 | 73 | 1015.2 |
| 20260507093142 | 73 | 300 | 2.0 | 3.0 | 0.00 | 0.00 | 0.00 | 72 | 1015.3 |
| 20260507092635 | 73 | 300 | 1.0 | 3.0 | 0.00 | 0.00 | 0.00 | 71 | 1015.2 |
| 20260507092131 | 73 | 300 | 1.0 | 3.0 | 0.00 | 0.00 | 0.00 | 70 | 1015.0 |
| 20260507091629 | 73 | 300 | 1.0 | 3.0 | 0.00 | 0.00 | 0.00 | 70 | 1014.9 |
| 20260507091129 | 73 | 300 | 1.0 | 3.0 | 0.00 | 0.00 | 0.00 | 70 | 1015.0 |
| 20260507090629 | 73 | 300 | 2.0 | 7.0 | 0.00 | 0.00 | 0.00 | 70 | 1015.2 |